sat.trackr.live / text

‹ back to catalog

HAWK-5A

NORAD 52757 · 2022-057AB

PAYLOAD ACTIVE UNKNOWN

§ Identity

Operator
Country
US
Launch date
2022-05-25
Launch site
AFETR
Launch vehicle
Mass (kg)
RCS (m²)

Purposes: tech_demo

External: N2YO · Heavens-Above · Gunter

§ Orbital elements

Epoch: 2026-05-24T22:42:09.000000Z

Period
92.88 min
Inclination
97.6574°
Eccentricity
0.0005957
Mean motion
15.50440218 rev/d
Perigee alt
411.4 km
Apogee alt
419.5 km
Semi-major
6,793.6 km
B*
3.0016e-4
RAAN
302.3163°
Arg perigee
147.2075°
Mean anomaly
212.9546°
Rev number
22,274

§ Raw data

HAWK-5A1 52757U 22057AB  26144.94593750  .00017008  00000+0  30016-3 0  99992 52757  97.6574 302.3163 0005957 147.2075 212.9546 15.50440218222742

JSON: /api/v1/satellites/52757 · /tle

For live sub-satellite position, see the globe view (requires WebGL).

§ Visibility from observer

Set your observer location to see the next 7 days of passes ≥ 10°. The values pass through the URL so the page stays shareable.

No JS? Fill the form by hand. The geolocation button needs JavaScript.